| time (UTC) | temp C | wind direction | speed KPH | gust KPH | rain 1hr cm | rain 24hr cm | rain mn cm | humidity % | barometer mb |
| 20260503050602 | 10 | 329 | 1.6 | 3.2 | 0.00 | 0.00 | 0.00 | 80 | 1012.4 |
| 20260503050106 | 10 | 329 | 1.6 | 3.2 | 0.00 | 0.00 | 0.00 | 80 | 1012.5 |
| 20260503045508 | 10 | 327 | 1.6 | 3.2 | 0.00 | 0.00 | 0.00 | 80 | 1012.4 |
| 20260503045007 | 10 | 327 | 1.6 | 3.2 | 0.00 | 0.00 | 0.00 | 80 | 1012.4 |
| 20260503044603 | 10 | 327 | 1.6 | 3.2 | 0.00 | 0.00 | 0.00 | 80 | 1012.3 |
| 20260503044104 | 10 | 327 | 1.6 | 3.2 | 0.00 | 0.00 | 0.00 | 79 | 1012.4 |
| 20260503043503 | 10 | 335 | 0.0 | 3.2 | 0.00 | 0.00 | 0.00 | 79 | 1012.4 |
| 20260503043102 | 10 | 335 | 1.6 | 3.2 | 0.00 | 0.00 | 0.00 | 79 | 1012.3 |
| 20260503042502 | 11 | 335 | 1.6 | 3.2 | 0.00 | 0.00 | 0.00 | 79 | 1012.1 |
| 20260503042104 | 11 | 335 | 0.0 | 3.2 | 0.00 | 0.00 | 0.00 | 79 | 1012.2 |
| 20260503041503 | 11 | 335 | 1.6 | 4.8 | 0.00 | 0.00 | 0.00 | 78 | 1012.1 |
| 20260503041008 | 11 | 355 | 1.6 | 4.8 | 0.00 | 0.00 | 0.00 | 78 | 1012.1 |
| 20260503040509 | 11 | 5 | 1.6 | 3.2 | 0.00 | 0.00 | 0.00 | 78 | 1012.1 |
| 20260503040003 | 11 | 5 | 1.6 | 3.2 | 0.00 | 0.00 | 0.00 | 78 | 1012.1 |
| 20260503035603 | 11 | 5 | 1.6 | 3.2 | 0.00 | 0.00 | 0.00 | 78 | 1012.1 |
| 20260503035004 | 11 | 5 | 0.0 | 3.2 | 0.00 | 0.00 | 0.00 | 77 | 1012.0 |
| 20260503034615 | 11 | 5 | 0.0 | 3.2 | 0.00 | 0.00 | 0.00 | 77 | 1012.0 |
| 20260503034003 | 12 | 5 | 0.0 | 3.2 | 0.00 | 0.00 | 0.00 | 76 | 1011.9 |
| 20260503033605 | 12 | 5 | 1.6 | 3.2 | 0.00 | 0.00 | 0.00 | 76 | 1011.8 |
| 20260503033103 | 12 | 5 | 1.6 | 3.2 | 0.00 | 0.00 | 0.00 | 75 | 1011.8 |
| 20260503032603 | 12 | 5 | 1.6 | 3.2 | 0.00 | 0.00 | 0.00 | 73 | 1011.7 |
| 20260503032103 | 13 | 5 | 1.6 | 3.2 | 0.00 | 0.00 | 0.00 | 72 | 1011.7 |
| 20260503031503 | 13 | 5 | 0.0 | 1.6 | 0.00 | 0.00 | 0.00 | 70 | 1011.5 |
| 20260503031103 | 14 | 5 | 0.0 | 1.6 | 0.00 | 0.00 | 0.00 | 69 | 1011.4 |
| 20260503030502 | 15 | 5 | 0.0 | 3.2 | 0.00 | 0.00 | 0.00 | 68 | 1011.4 |
| 20260503030005 | 15 | 5 | 0.0 | 0.0 | 0.00 | 0.00 | 0.00 | 68 | 1011.4 |
| 20260503025606 | 15 | 5 | 0.0 | 0.0 | 0.00 | 0.00 | 0.00 | 67 | 1011.4 |
| 20260503025102 | 16 | 5 | 0.0 | 0.0 | 0.00 | 0.00 | 0.00 | 66 | 1011.4 |
| 20260503024603 | 16 | 9 | 0.0 | 0.0 | 0.00 | 0.00 | 0.00 | 67 | 1011.3 |
| 20260503024008 | 17 | 9 | 0.0 | 0.0 | 0.00 | 0.00 | 0.00 | 63 | 1011.4 |
| 20260503023603 | 17 | 9 | 0.0 | 0.0 | 0.00 | 0.00 | 0.00 | 64 | 1011.3 |
| 20260503023105 | 17 | 9 | 0.0 | 0.0 | 0.00 | 0.00 | 0.00 | 61 | 1011.3 |
| 20260503022503 | 18 | 9 | 0.0 | 1.6 | 0.00 | 0.00 | 0.00 | 59 | 1011.2 |
| 20260503022002 | 18 | 9 | 0.0 | 1.6 | 0.00 | 0.00 | 0.00 | 59 | 1011.2 |
| 20260503021013 | 19 | 9 | 0.0 | 0.0 | 0.00 | 0.00 | 0.00 | 56 | 1011.2 |
| 20260503020503 | 20 | 9 | 0.0 | 0.0 | 0.00 | 0.00 | 0.00 | 56 | 1011.2 |
| 20260503015604 | 20 | 9 | 0.0 | 1.6 | 0.00 | 0.00 | 0.00 | 54 | 1011.1 |
| 20260503015002 | 20 | 5 | 0.0 | 1.6 | 0.00 | 0.00 | 0.00 | 53 | 1011.2 |
| 20260503014507 | 21 | 5 | 0.0 | 1.6 | 0.00 | 0.00 | 0.00 | 50 | 1011.1 |
| 20260503013604 | 21 | 5 | 0.0 | 3.2 | 0.00 | 0.00 | 0.00 | 45 | 1011.1 |
| 20260503013003 | 21 | 5 | 0.0 | 6.4 | 0.00 | 0.00 | 0.00 | 41 | 1011.1 |
| 20260503012504 | 21 | 5 | 1.6 | 14.5 | 0.00 | 0.00 | 0.00 | 37 | 1011.1 |
| 20260503012103 | 22 | 17 | 4.8 | 14.5 | 0.00 | 0.00 | 0.00 | 35 | 1011.1 |
| 20260503011503 | 22 | 321 | 1.6 | 3.2 | 0.00 | 0.00 | 0.00 | 35 | 1011.1 |
| 20260503011006 | 22 | 248 | 0.0 | 8.0 | 0.00 | 0.00 | 0.00 | 36 | 1011.0 |
| 20260503010602 | 23 | 236 | 0.0 | 8.0 | 0.00 | 0.00 | 0.00 | 34 | 1011.1 |
| 20260503010123 | 23 | 186 | 1.6 | 8.0 | 0.00 | 0.00 | 0.00 | 32 | 1011.1 |
| 20260503005504 | 23 | 178 | 1.6 | 6.4 | 0.00 | 0.00 | 0.00 | 32 | 1011.2 |
| 20260503005003 | 24 | 188 | 1.6 | 4.8 | 0.00 | 0.00 | 0.00 | 32 | 1011.3 |
| 20260503004607 | 24 | 183 | 1.6 | 6.4 | 0.00 | 0.00 | 0.00 | 31 | 1011.3 |
| 20260503004002 | 24 | 194 | 0.0 | 9.7 | 0.00 | 0.00 | 0.00 | 30 | 1011.3 |
| 20260503003603 | 24 | 183 | 1.6 | 6.4 | 0.00 | 0.00 | 0.00 | 31 | 1011.3 |
| 20260503003111 | 24 | 182 | 1.6 | 6.4 | 0.00 | 0.00 | 0.00 | 32 | 1011.3 |
| 20260503002503 | 24 | 198 | 4.8 | 8.0 | 0.00 | 0.00 | 0.00 | 29 | 1011.4 |
| 20260503002103 | 24 | 215 | 3.2 | 8.0 | 0.00 | 0.00 | 0.00 | 29 | 1011.4 |
| 20260503001504 | 24 | 198 | 4.8 | 8.0 | 0.00 | 0.00 | 0.00 | 30 | 1011.4 |
| 20260503001106 | 24 | 188 | 1.6 | 9.7 | 0.00 | 0.00 | 0.00 | 32 | 1011.3 |
| 20260503000602 | 25 | 223 | 4.8 | 9.7 | 0.00 | 0.00 | 0.00 | 27 | 1011.3 |
| 20260503000002 | 25 | 244 | 1.6 | 4.8 | 0.00 | 0.00 | 0.00 | 27 | 1011.5 |
| 20260502235507 | 25 | 42 | 1.6 | 4.8 | 0.00 | 0.00 | 0.00 | 31 | 1011.5 |
| 20260502235102 | 25 | 176 | 0.0 | 3.2 | 0.00 | 0.00 | 0.00 | 30 | 1011.5 |
| 20260502234501 | 24 | 215 | 0.0 | 4.8 | 0.00 | 0.00 | 0.00 | 30 | 1011.7 |
| 20260502234002 | 24 | 90 | 1.6 | 4.8 | 0.00 | 0.00 | 0.00 | 33 | 1011.7 |
| 20260502233506 | 25 | 264 | 1.6 | 4.8 | 0.00 | 0.00 | 0.00 | 30 | 1011.7 |
| 20260502233103 | 25 | 212 | 1.6 | 6.4 | 0.00 | 0.00 | 0.00 | 29 | 1011.7 |
| 20260502232502 | 24 | 200 | 3.2 | 6.4 | 0.00 | 0.00 | 0.00 | 27 | 1011.9 |
| 20260502232001 | 24 | 188 | 3.2 | 9.7 | 0.00 | 0.00 | 0.00 | 28 | 1011.9 |
| 20260502231503 | 24 | 217 | 4.8 | 9.7 | 0.00 | 0.00 | 0.00 | 30 | 1011.9 |
| 20260502231007 | 24 | 177 | 1.6 | 8.0 | 0.00 | 0.00 | 0.00 | 32 | 1011.9 |
| 20260502230602 | 24 | 157 | 4.8 | 8.0 | 0.00 | 0.00 | 0.00 | 29 | 1011.9 |
| 20260502225507 | 25 | 221 | 3.2 | 8.0 | 0.00 | 0.00 | 0.00 | 27 | 1012.1 |
| 20260502225005 | 24 | 200 | 3.2 | 6.4 | 0.00 | 0.00 | 0.00 | 27 | 1012.2 |
| 20260502224507 | 24 | 189 | 3.2 | 6.4 | 0.00 | 0.00 | 0.00 | 27 | 1012.2 |
| 20260502224007 | 24 | 324 | 3.2 | 11.3 | 0.00 | 0.00 | 0.00 | 29 | 1012.3 |
| 20260502223602 | 23 | 313 | 1.6 | 11.3 | 0.00 | 0.00 | 0.00 | 30 | 1012.3 |
| 20260502223004 | 24 | 59 | 3.2 | 9.7 | 0.00 | 0.00 | 0.00 | 27 | 1012.5 |
| 20260502222506 | 24 | 71 | 1.6 | 9.7 | 0.00 | 0.00 | 0.00 | 27 | 1012.5 |
| 20260502222105 | 24 | 178 | 3.2 | 8.0 | 0.00 | 0.00 | 0.00 | 27 | 1012.5 |
| 20260502221502 | 25 | 180 | 3.2 | 8.0 | 0.00 | 0.00 | 0.00 | 28 | 1012.6 |
| 20260502221001 | 25 | 201 | 3.2 | 8.0 | 0.00 | 0.00 | 0.00 | 27 | 1012.7 |
| 20260502220507 | 25 | 183 | 1.6 | 4.8 | 0.00 | 0.00 | 0.00 | 29 | 1012.6 |
| 20260502220007 | 23 | 31 | 0.0 | 6.4 | 0.00 | 0.00 | 0.00 | 28 | 1012.7 |
| 20260502215603 | 23 | 251 | 3.2 | 9.7 | 0.00 | 0.00 | 0.00 | 32 | 1012.7 |
| 20260502215001 | 23 | 163 | 3.2 | 14.5 | 0.00 | 0.00 | 0.00 | 34 | 1012.8 |
| 20260502214505 | 23 | 110 | 4.8 | 12.9 | 0.00 | 0.00 | 0.00 | 31 | 1012.9 |
| 20260502214103 | 23 | 155 | 6.4 | 11.3 | 0.00 | 0.00 | 0.00 | 30 | 1012.9 |
| 20260502213502 | 23 | 185 | 4.8 | 9.7 | 0.00 | 0.00 | 0.00 | 29 | 1013.0 |
| 20260502213007 | 23 | 155 | 4.8 | 11.3 | 0.00 | 0.00 | 0.00 | 31 | 1012.9 |
| 20260502212603 | 23 | 84 | 3.2 | 11.3 | 0.00 | 0.00 | 0.00 | 33 | 1013.0 |
| 20260502212002 | 23 | 229 | 3.2 | 12.9 | 0.00 | 0.00 | 0.00 | 30 | 1013.1 |
| 20260502211513 | 23 | 160 | 6.4 | 11.3 | 0.00 | 0.00 | 0.00 | 30 | 1013.2 |
| 20260502211103 | 23 | 192 | 3.2 | 11.3 | 0.00 | 0.00 | 0.00 | 33 | 1013.2 |
| 20260502210603 | 23 | 188 | 6.4 | 11.3 | 0.00 | 0.00 | 0.00 | 33 | 1013.3 |
| 20260502210004 | 23 | 109 | 4.8 | 11.3 | 0.00 | 0.00 | 0.00 | 28 | 1013.3 |
| 20260502205509 | 22 | 77 | 3.2 | 14.5 | 0.00 | 0.00 | 0.00 | 31 | 1013.3 |
| 20260502205002 | 22 | 113 | 8.0 | 14.5 | 0.00 | 0.00 | 0.00 | 29 | 1013.4 |
| 20260502204505 | 23 | 175 | 3.2 | 9.7 | 0.00 | 0.00 | 0.00 | 29 | 1013.5 |
| 20260502204102 | 23 | 181 | 3.2 | 9.7 | 0.00 | 0.00 | 0.00 | 31 | 1013.4 |
| 20260502203502 | 22 | 157 | 3.2 | 8.0 | 0.00 | 0.00 | 0.00 | 35 | 1013.5 |
| 20260502203007 | 22 | 142 | 4.8 | 8.0 | 0.00 | 0.00 | 0.00 | 31 | 1013.6 |
| 20260502202601 | 22 | 113 | 3.2 | 8.0 | 0.00 | 0.00 | 0.00 | 34 | 1013.6 |
| 20260502202002 | 22 | 112 | 4.8 | 11.3 | 0.00 | 0.00 | 0.00 | 31 | 1013.7 |
| 20260502201511 | 22 | 101 | 1.6 | 6.4 | 0.00 | 0.00 | 0.00 | 37 | 1013.7 |
| 20260502200502 | 22 | 139 | 3.2 | 11.3 | 0.00 | 0.00 | 0.00 | 32 | 1013.9 |
| 20260502200006 | 22 | 161 | 3.2 | 11.3 | 0.00 | 0.00 | 0.00 | 35 | 1013.9 |
| 20260502195603 | 22 | 142 | 3.2 | 9.7 | 0.00 | 0.00 | 0.00 | 39 | 1014.0 |
| 20260502195102 | 22 | 57 | 3.2 | 12.9 | 0.00 | 0.00 | 0.00 | 36 | 1014.0 |
| 20260502194604 | 22 | 122 | 6.4 | 12.9 | 0.00 | 0.00 | 0.00 | 35 | 1014.0 |
| 20260502194002 | 22 | 178 | 4.8 | 9.7 | 0.00 | 0.00 | 0.00 | 35 | 1014.1 |
| 20260502193502 | 22 | 199 | 4.8 | 9.7 | 0.00 | 0.00 | 0.00 | 37 | 1014.1 |
| 20260502193006 | 21 | 80 | 3.2 | 9.7 | 0.00 | 0.00 | 0.00 | 36 | 1014.2 |
| 20260502192603 | 21 | 159 | 3.2 | 9.7 | 0.00 | 0.00 | 0.00 | 40 | 1014.2 |
| 20260502192002 | 21 | 129 | 3.2 | 9.7 | 0.00 | 0.00 | 0.00 | 35 | 1014.3 |
| 20260502191507 | 21 | 160 | 4.8 | 11.3 | 0.00 | 0.00 | 0.00 | 36 | 1014.3 |
| 20260502191102 | 21 | 101 | 4.8 | 11.3 | 0.00 | 0.00 | 0.00 | 40 | 1014.4 |
| 20260502190602 | 21 | 186 | 4.8 | 9.7 | 0.00 | 0.00 | 0.00 | 36 | 1014.4 |
| 20260502190009 | 21 | 136 | 3.2 | 11.3 | 0.00 | 0.00 | 0.00 | 41 | 1014.5 |
| 20260502185502 | 20 | 172 | 4.8 | 14.5 | 0.00 | 0.00 | 0.00 | 36 | 1014.4 |
| 20260502185002 | 21 | 144 | 9.7 | 14.5 | 0.00 | 0.00 | 0.00 | 41 | 1014.5 |
| 20260502184506 | 21 | 58 | 3.2 | 9.7 | 0.00 | 0.00 | 0.00 | 38 | 1014.6 |
| 20260502184102 | 21 | 193 | 3.2 | 12.9 | 0.00 | 0.00 | 0.00 | 39 | 1014.7 |
| 20260502183502 | 21 | 159 | 6.4 | 12.9 | 0.00 | 0.00 | 0.00 | 34 | 1014.7 |
| 20260502183005 | 21 | 200 | 1.6 | 11.3 | 0.00 | 0.00 | 0.00 | 37 | 1014.7 |
| 20260502182506 | 20 | 192 | 4.8 | 11.3 | 0.00 | 0.00 | 0.00 | 38 | 1014.8 |
| 20260502181602 | 20 | 126 | 6.4 | 14.5 | 0.00 | 0.00 | 0.00 | 34 | 1014.8 |
| 20260502181102 | 20 | 133 | 3.2 | 14.5 | 0.00 | 0.00 | 0.00 | 44 | 1014.8 |
| 20260502180502 | 20 | 125 | 6.4 | 12.9 | 0.00 | 0.00 | 0.00 | 39 | 1014.8 |
| 20260502170502 | 17 | 119 | 4.8 | 12.9 | 0.00 | 0.00 | 0.00 | 46 | 1015.0 |
| 20260502164002 | 17 | 149 | 4.8 | 11.3 | 0.00 | 0.00 | 0.00 | 46 | 1015.2 |
| 20260502163503 | 16 | 131 | 4.8 | 11.3 | 0.00 | 0.00 | 0.00 | 48 | 1015.1 |
| 20260502163116 | 16 | 103 | 4.8 | 11.3 | 0.00 | 0.00 | 0.00 | 48 | 1015.2 |
| 20260502162502 | 16 | 103 | 4.8 | 11.3 | 0.00 | 0.00 | 0.00 | 48 | 1015.2 |
| 20260502162101 | 16 | 104 | 3.2 | 11.3 | 0.00 | 0.00 | 0.00 | 48 | 1015.2 |
| 20260502161502 | 16 | 86 | 3.2 | 11.3 | 0.00 | 0.00 | 0.00 | 50 | 1015.2 |
| 20260502161101 | 16 | 112 | 4.8 | 12.9 | 0.00 | 0.00 | 0.00 | 46 | 1015.3 |
| 20260502160504 | 16 | 131 | 3.2 | 11.3 | 0.00 | 0.00 | 0.00 | 50 | 1015.3 |
| 20260502160108 | 16 | 101 | 1.6 | 11.3 | 0.00 | 0.00 | 0.00 | 52 | 1015.4 |
| 20260502152105 | 14 | 72 | 1.6 | 6.4 | 0.00 | 0.00 | 0.00 | 61 | 1015.3 |
| 20260502151504 | 14 | 121 | 3.2 | 6.4 | 0.00 | 0.00 | 0.00 | 58 | 1015.3 |
| 20260502151101 | 15 | 111 | 3.2 | 6.4 | 0.00 | 0.00 | 0.00 | 58 | 1015.3 |
| 20260502150505 | 14 | 100 | 0.0 | 3.2 | 0.00 | 0.00 | 0.00 | 61 | 1015.3 |
| 20260502130507 | 5 | 9 | 0.0 | 1.6 | 0.00 | 0.00 | 0.00 | 89 | 1015.1 |
| 20260502130105 | 5 | 5 | 0.0 | 1.6 | 0.00 | 0.00 | 0.00 | 90 | 1015.1 |
| 20260502123503 | 4 | 5 | 1.6 | 3.2 | 0.00 | 0.00 | 0.00 | 90 | 1015.0 |
| 20260502123012 | 4 | 5 | 1.6 | 3.2 | 0.00 | 0.00 | 0.00 | 90 | 1015.0 |
| 20260502122503 | 4 | 13 | 1.6 | 3.2 | 0.00 | 0.00 | 0.00 | 90 | 1015.0 |
| 20260502122005 | 4 | 17 | 0.0 | 3.2 | 0.00 | 0.00 | 0.00 | 90 | 1015.0 |
| 20260502121602 | 4 | 5 | 0.0 | 4.8 | 0.00 | 0.00 | 0.00 | 90 | 1015.0 |
| 20260502121002 | 4 | 11 | 3.2 | 4.8 | 0.00 | 0.00 | 0.00 | 90 | 1015.1 |
| 20260502120505 | 4 | 12 | 0.0 | 3.2 | 0.00 | 0.00 | 0.00 | 90 | 1015.1 |
| 20260502120113 | 4 | 12 | 0.0 | 3.2 | 0.00 | 0.00 | 0.00 | 90 | 1015.1 |
| 20260502115507 | 5 | 12 | 0.0 | 1.6 | 0.00 | 0.00 | 0.00 | 90 | 1015.1 |
| 20260502115101 | 5 | 12 | 0.0 | 1.6 | 0.00 | 0.00 | 0.00 | 90 | 1015.2 |
| 20260502114637 | 5 | 12 | 0.0 | 1.6 | 0.00 | 0.00 | 0.00 | 90 | 1015.1 |
| 20260502114003 | 5 | 12 | 0.0 | 1.6 | 0.00 | 0.00 | 0.00 | 90 | 1015.1 |
| 20260502113503 | 5 | 12 | 0.0 | 3.2 | 0.00 | 0.00 | 0.00 | 90 | 1015.1 |
| 20260502113007 | 5 | 12 | 0.0 | 3.2 | 0.00 | 0.00 | 0.00 | 90 | 1015.1 |
| 20260502112503 | 5 | 12 | 0.0 | 3.2 | 0.00 | 0.00 | 0.00 | 90 | 1015.1 |
| 20260502112008 | 5 | 12 | 0.0 | 3.2 | 0.00 | 0.00 | 0.00 | 90 | 1015.1 |
| 20260502111502 | 5 | 12 | 1.6 | 3.2 | 0.00 | 0.00 | 0.00 | 89 | 1015.1 |
| 20260502111005 | 5 | 12 | 0.0 | 1.6 | 0.00 | 0.00 | 0.00 | 90 | 1015.1 |
| 20260502110502 | 5 | 12 | 0.0 | 3.2 | 0.00 | 0.00 | 0.00 | 89 | 1015.2 |
| 20260502110014 | 5 | 12 | 1.6 | 3.2 | 0.00 | 0.00 | 0.00 | 90 | 1015.2 |
| 20260502105603 | 5 | 12 | 1.6 | 4.8 | 0.00 | 0.00 | 0.00 | 90 | 1015.2 |
| 20260502105006 | 5 | 14 | 1.6 | 3.2 | 0.00 | 0.00 | 0.00 | 90 | 1015.2 |
| 20260502104502 | 5 | 9 | 1.6 | 3.2 | 0.00 | 0.00 | 0.00 | 90 | 1015.2 |
| 20260502104006 | 5 | 355 | 0.0 | 3.2 | 0.00 | 0.00 | 0.00 | 90 | 1015.1 |
| 20260502103602 | 5 | 355 | 1.6 | 3.2 | 0.00 | 0.00 | 0.00 | 90 | 1015.1 |
| 20260502103003 | 5 | 355 | 1.6 | 3.2 | 0.00 | 0.00 | 0.00 | 90 | 1015.1 |
| 20260502102602 | 5 | 355 | 0.0 | 3.2 | 0.00 | 0.00 | 0.00 | 89 | 1015.2 |
| 20260502102002 | 5 | 355 | 0.0 | 1.6 | 0.00 | 0.00 | 0.00 | 89 | 1015.2 |
| 20260502101506 | 5 | 355 | 0.0 | 1.6 | 0.00 | 0.00 | 0.00 | 89 | 1015.1 |
| 20260502101105 | 5 | 355 | 0.0 | 0.0 | 0.00 | 0.00 | 0.00 | 89 | 1015.1 |
| 20260502100502 | 5 | 355 | 0.0 | 1.6 | 0.00 | 0.00 | 0.00 | 88 | 1015.0 |
| 20260502091503 | 5 | 355 | 0.0 | 3.2 | 0.00 | 0.00 | 0.00 | 88 | 1015.1 |
| 20260502091007 | 5 | 355 | 0.0 | 3.2 | 0.00 | 0.00 | 0.00 | 88 | 1015.1 |
| 20260502090602 | 5 | 355 | 0.0 | 3.2 | 0.00 | 0.00 | 0.00 | 88 | 1015.1 |
| 20260502071002 | 6 | 351 | 1.6 | 3.2 | 0.00 | 0.00 | 0.00 | 86 | 1015.0 |
| 20260502070506 | 6 | 351 | 0.0 | 1.6 | 0.00 | 0.00 | 0.00 | 86 | 1015.1 |
| 20260502070110 | 6 | 351 | 0.0 | 1.6 | 0.00 | 0.00 | 0.00 | 86 | 1015.0 |
| 20260502065504 | 6 | 351 | 0.0 | 1.6 | 0.00 | 0.00 | 0.00 | 87 | 1015.1 |
| 20260502065005 | 6 | 351 | 0.0 | 1.6 | 0.00 | 0.00 | 0.00 | 87 | 1015.0 |
| 20260502064623 | 6 | 351 | 0.0 | 3.2 | 0.00 | 0.00 | 0.00 | 87 | 1015.1 |
| 20260502064003 | 6 | 351 | 0.0 | 3.2 | 0.00 | 0.00 | 0.00 | 86 | 1015.1 |
| 20260502063602 | 6 | 355 | 1.6 | 3.2 | 0.00 | 0.00 | 0.00 | 86 | 1015.1 |
| 20260502063003 | 6 | 355 | 0.0 | 1.6 | 0.00 | 0.00 | 0.00 | 86 | 1015.1 |
| 20260502062502 | 7 | 355 | 0.0 | 3.2 | 0.00 | 0.00 | 0.00 | 85 | 1015.1 |
| 20260502062002 | 7 | 355 | 0.0 | 3.2 | 0.00 | 0.00 | 0.00 | 85 | 1015.1 |
| 20260502061505 | 7 | 355 | 1.6 | 3.2 | 0.00 | 0.00 | 0.00 | 85 | 1015.0 |
| 20260502061102 | 7 | 333 | 0.0 | 1.6 | 0.00 | 0.00 | 0.00 | 85 | 1015.1 |
| 20260502060503 | 7 | 333 | 0.0 | 1.6 | 0.00 | 0.00 | 0.00 | 85 | 1015.1 |
| 20260502060002 | 7 | 333 | 0.0 | 1.6 | 0.00 | 0.00 | 0.00 | 85 | 1015.1 |
| 20260502055505 | 7 | 333 | 0.0 | 3.2 | 0.00 | 0.00 | 0.00 | 84 | 1015.1 |
| 20260502055102 | 7 | 333 | 0.0 | 3.2 | 0.00 | 0.00 | 0.00 | 84 | 1015.2 |
| 20260502054508 | 7 | 333 | 0.0 | 3.2 | 0.00 | 0.00 | 0.00 | 84 | 1015.2 |
| 20260502054005 | 8 | 333 | 1.6 | 3.2 | 0.00 | 0.00 | 0.00 | 84 | 1015.2 |
| 20260502053511 | 8 | 333 | 1.6 | 3.2 | 0.00 | 0.00 | 0.00 | 83 | 1015.2 |
| 20260502053003 | 8 | 333 | 1.6 | 3.2 | 0.00 | 0.00 | 0.00 | 83 | 1015.2 |
| 20260502052505 | 8 | 333 | 1.6 | 4.8 | 0.00 | 0.00 | 0.00 | 83 | 1015.2 |
| 20260502052105 | 8 | 342 | 1.6 | 4.8 | 0.00 | 0.00 | 0.00 | 83 | 1015.2 |
| 20260502051502 | 8 | 355 | 1.6 | 3.2 | 0.00 | 0.00 | 0.00 | 83 | 1015.2 |